Weather History for Springfield, IL

Change the Weather History Date:

Monday, October 11, 2010

  Actual Average Record
Temperature  
Mean Temperature 71 °F 57 °F  
Max Temperature 85 °F 68 °F 90 °F (1962)
Min Temperature 56 °F 45 °F 28 °F (1987)
Degree Days  
Heating Degree Days 0 9  
Month to date heating degree days 72 86  
Since 1 July heating degree days 105 167  
Cooling Degree Days 6 1  
Month to date cooling degree days 15 13  
Year to date cooling degree days 1545 1112  
Growing Degree Days 20 (Base 50)    
Moisture  
Dew Point 52 °F    
Average Humidity 57    
Maximum Humidity 86    
Minimum Humidity 27    
Precipitation  
Precipitation 0.00 in 0.10 in 1.38 in (1931)
Month to date precipitation 0.19 1.08  
Year to date precipitation 42.66 29.63  
Snow  
Snow 0.00 in 0.00 in T in (1909)
Month to date snowfall 0.0 0.0  
Since 1 July snowfall 0.0 0.0  
Since 1 September snowfall 0.0 0.0  
Snow Depth 0.00 in    
Sea Level Pressure  
Sea Level Pressure 29.86 in    
Wind  
Wind Speed 3 mph (NW)    
Max Wind Speed 12 mph    
Max Gust Speed 14 mph    
Visibility 10 miles    
Events      
T = Trace of Precipitation, MM = Missing Value Source: NWS Daily Summary

Daily Weather History Graph

Daily Weather History Graph

Search for Another Location

Airport:

Trip Planner

Search our weather history database for the weather conditions in past years. The results will help you decide how hot, cold, wet, or windy it might be!

Date:

Astronomy

Oct. 11, 2010 Rise Set
Actual Time 7:04 AM CDT 6:25 PM CDT
Civil Twilight 6:37 AM CDT 6:52 PM CDT
Nautical Twilight 6:06 AM CDT 7:23 PM CDT
Astronomical Twilight 5:35 AM CDT 7:54 PM CDT
Moon 11:40 AM CDT (10/11) 9:03 PM CDT (10/11)
Length of Visible Light 12h 14m
Length of Day
11h 20m
Waxing Crescent, 19% of the Moon is Illuminated
Oct 11
Waxing Crescent
Oct 14
First Quarter
Oct 22
Full
Oct 30
Last Quarter
Nov 5
New

Hourly Weather History & Observations

Time (CDT) Temp. Dew Point Humidity Pressure Visibility Wind Dir Wind Speed Gust Speed Precip Events Conditions
12:52 AM 59.0 °F 53.1 °F 81% 29.87 in 10.0 mi Calm Calm - N/A   Clear
1:52 AM 57.0 °F 52.0 °F 83% 29.87 in 10.0 mi Calm Calm - N/A   Clear
2:52 AM 59.0 °F 53.1 °F 81% 29.86 in 10.0 mi Calm Calm - N/A   Clear
3:52 AM 57.2 °F 53.6 °F 88% 29.87 in 10.0 mi Calm Calm - N/A   Clear
4:52 AM 57.9 °F 52.0 °F 81% 29.85 in 10.0 mi Calm Calm - N/A   Clear
5:52 AM 55.9 °F 52.0 °F 87% 29.86 in 10.0 mi Calm Calm - N/A   Clear
6:52 AM 57.9 °F 52.0 °F 81% 29.87 in 10.0 mi Calm Calm - N/A   Clear
7:52 AM 57.9 °F 53.1 °F 84% 29.88 in 10.0 mi Calm Calm - N/A   Clear
8:52 AM 64.0 °F 54.0 °F 70% 29.88 in 10.0 mi Calm Calm - N/A   Clear
9:52 AM 70.0 °F 53.1 °F 55% 29.89 in 10.0 mi West 4.6 mph - N/A   Clear
10:52 AM 75.0 °F 53.1 °F 46% 29.89 in 10.0 mi West 5.8 mph - N/A   Clear
11:52 AM 78.1 °F 51.1 °F 39% 29.88 in 10.0 mi Variable 5.8 mph - N/A   Clear
12:52 PM 82.0 °F 48.9 °F 31% 29.86 in 10.0 mi WSW 5.8 mph - N/A   Clear
1:52 PM 82.4 °F 48.2 °F 30% 29.84 in 10.0 mi South 9.2 mph - N/A   Clear
2:52 PM 84.0 °F 46.0 °F 26% 29.82 in 10.0 mi West 5.8 mph - N/A   Clear
3:52 PM 84.0 °F 46.9 °F 27% 29.81 in 10.0 mi NW 8.1 mph - N/A   Clear
4:52 PM 84.0 °F 48.0 °F 28% 29.81 in 10.0 mi NW 5.8 mph - N/A   Clear
5:52 PM 77.0 °F 51.1 °F 40% 29.82 in 10.0 mi NW 5.8 mph - N/A   Clear
6:52 PM 71.1 °F 55.0 °F 57% 29.83 in 10.0 mi NNW 5.8 mph - N/A   Clear
7:52 PM 64.0 °F 55.0 °F 73% 29.84 in 10.0 mi North 5.8 mph - N/A   Clear
8:52 PM 64.0 °F 53.1 °F 67% 29.85 in 10.0 mi North 4.6 mph - N/A   Clear
9:52 PM 60.1 °F 53.1 °F 78% 29.85 in 10.0 mi NNE 3.5 mph - N/A   Clear
10:52 PM 61.0 °F 53.1 °F 75% 29.86 in 10.0 mi Calm Calm - N/A   Clear
11:52 PM 59.0 °F 53.1 °F 81% 29.86 in 10.0 mi Calm Calm - N/A   Clear